Overview Statistics Trail Chart Weather Telemetry Raw packets
 

This is the latest recevied weather packets stored in our database for station/object F1DKL-13. If no packets are shown the sender has not sent any weather packets the latest 10 day(s).

<< 21 22 23 24 25 26 27 >>
Time Temp. Humidity Pressure Rain* Wind** Luminosity Snow
1777549207 26.67° C 2% 1024.7 hPa 0 mm - - -
1777548907 26.67° C 2% 1024.7 hPa 0 mm - - -
1777548607 26.67° C 2% 1024.7 hPa 0 mm - - -
1777548307 26.67° C 2% 1024.7 hPa 0 mm - - -
1777548007 26.67° C 7% 1024.7 hPa 0 mm - - -
1777547708 26.67° C 17% 1024.7 hPa 0 mm - - -
1777547407 26.11° C 15% 1024.7 hPa 0 mm - - -
1777547107 25° C 20% 1024.7 hPa 0 mm - - -
1777546807 24.44° C 18% 1024.7 hPa 0 mm - - -
1777546507 24.44° C 15% 1024.7 hPa 0 mm - - -
1777546207 24.44° C 15% 1024.7 hPa 0 mm - - -
1777545907 24.44° C 3% 1024.7 hPa 0 mm - - -
1777545607 24.44° C 5% 1024.7 hPa 0 mm - - -
1777545307 25° C 3% 1024.7 hPa 0 mm - - -
1777545007 25° C 18% 1024.7 hPa 0 mm - - -
1777544707 25° C 24% 1024.7 hPa 0 mm - - -
1777544407 25° C 25% 1024.7 hPa 0 mm - - -
1777544107 24.44° C 31% 1024.7 hPa 0 mm - - -
1777543807 23.33° C 33% 1024.7 hPa 0 mm - - -
1777543507 22.78° C 33% 1024.7 hPa 0 mm - - -
1777543207 21.67° C 36% 1024.7 hPa 0 mm - - -
1777542907 21.67° C 40% 1024.7 hPa 0 mm - - -
1777542607 21.11° C 41% 1024.7 hPa 0 mm - - -
1777542307 20° C 40% 1024.7 hPa 0 mm - - -
1777542007 19.44° C 44% 1025.8 hPa 0 mm - - -

* Rain latest hour (hover to see other rain measurements)
** Current wind speed in m/s (hover to see current wind gust speed)